Zurück zum Katalog

STARLINK-35549

AktivKommunikationVLEO
NORAD 66139·PAYLOAD·🇺🇸 United States

Gestartet Oct 22, 2025 von Vandenberg Space Force Base

Loading…

Nächste Überflüge (nächste 24 Stunden)

TLE

AktuellSource: CelesTrak SupGP

Epoche: Sep 14, 2026, 21:09 UTC

1 66139C 25237AB  26257.88173611  .00053454  00000+0  15792-2 0  2574
2 66139  53.1576 238.2280 0001399  94.5393 261.9254 15.34366557    19

Verfolge STARLINK-35549 in Echtzeit mit AllMySat

Download on the App Store